sat.trackr.live / text

‹ back to catalog

STARLINK-30224

NORAD 57416 · 2023-102N

PAYLOAD ACTIVE UNKNOWN

§ Identity

Operator
Country
US
Launch date
2023-07-20
Launch site
AFWTR
Launch vehicle
Mass (kg)
RCS (m²)

Purposes: comms

External: N2YO · Heavens-Above · Gunter

§ Orbital elements

Epoch: 2026-05-25T03:41:22.437024Z

Period
94.27 min
Inclination
43.0019°
Eccentricity
0.0001382
Mean motion
15.27578773 rev/d
Perigee alt
482.1 km
Apogee alt
484.0 km
Semi-major
6,861.2 km
B*
2.5528e-5
RAAN
176.7872°
Arg perigee
264.3235°
Mean anomaly
95.7459°
Rev number
15,793

§ Raw data

STARLINK-302241 57416U 23102N   26145.15373191  .00000440  00000+0  25528-4 0  99922 57416  43.0019 176.7872 0001382 264.3235  95.7459 15.27578773157935

JSON: /api/v1/satellites/57416 · /tle

For live sub-satellite position, see the globe view (requires WebGL).

§ Visibility from observer

Set your observer location to see the next 7 days of passes ≥ 10°. The values pass through the URL so the page stays shareable.

No JS? Fill the form by hand. The geolocation button needs JavaScript.